Погода в Умете

Россия / Республика Мордовия     54°06′44″N   42°41′53″E
темп.,
°C
ветер,
м/с
пор.,
м/с
влажн.,
%
обл.,
%
осадки,
мм/ч
давл.,
гПа
погр.,
м
10 апреля, сб
сб1000:00+2св237765 0.0 102740
03:000св2388100 0.0 102848
06:00+1св2484100 0.0 102990
09:00+6св366098 0.0 1028643
12:00+8св4551100 0.0 10271106
15:00+9св444891 0.0 10261206
18:00+7всв3559100 0.0 1026516
21:00+3св25820 0.0 102694
11 апреля, вс
вс1100:00+1с23920 0.0 102757
03:000с2792100 0.0 1028138
06:000ссв288637 0.0 1029194
09:00+6ссв3658100 0.0 1030427
12:00+10св4642100 0.0 1030829
15:00+12св563791 0.0 1030936
18:00+10св4950100 0.0 1030480
21:00+7всв4969100 0.0 1031401
12 апреля, пн
пн1200:00+6св31091100 0.6 1031369
03:00+6св41194100 0.9 1031326
06:00+6св51195100 0.0 1031377
09:00+10в6117997 0.0 1030440
12:00+14в5763100 0.0 1030617
15:00+18вюв4750100 0.0 1029944
18:00+15в3864100 0.0 1028163
21:00+11вюв31176100 0.0 1029200
13 апреля, вт
вт1300:00+10юв3128142 0.0 1029215
03:00+8юв3108144 0.0 1029155
06:00+7юв3107658 0.0 1029169
09:00+13ююв595183 0.0 1028408
12:00+18ююв573568 0.0 10271042
15:00+19ююв5732100 0.0 10261725
18:00+16юв354635 0.0 102593
21:00+12ююв311614 0.0 1026197
14 апреля, ср
ср1400:00+10ююв3116314 0.0 1026203
03:00+9ююв396816 0.0 1026152
06:00+8юв39695 0.0 1025149
09:00+14ююв484991 0.0 1024383
12:00+19ююв573576 0.0 10231105
15:00+19ююв563093 0.0 10221638
18:00+16юв364666 0.0 1021143
21:00+12юв31060100 0.0 1021194